Location: Newark
(48.7875°N, 2.3928°E)
Time: 14:53:03
(UTC+00:00)

N. Korean satellite - Visible Passes

Search period start: 21 October 2019 00:00
Search period end: 31 October 2019 00:00
Orbit: 455 x 508 km, 97.2° (Epoch: 20 October)

Date Brightness Start Highest point End Pass type
(mag) Time Alt. Az. Time Alt. Az. Time Alt. Az.
21 Oct 10.5 18:11:49 10° WSW 18:12:38 11° W 18:13:27 10° WNW visible
22 Oct 8.0 05:31:04 10° NNE 05:34:34 45° E 05:38:05 10° S visible
22 Oct 9.6 17:44:27 10° SW 17:47:05 20° W 17:49:44 10° NW visible
23 Oct 9.3 05:06:09 10° NE 05:09:09 24° E 05:12:09 10° SSE visible
23 Oct 8.2 17:18:22 10° SSW 17:21:37 39° W 17:24:55 10° NNW visible
24 Oct 10.2 04:41:52 10° ENE 04:43:37 13° E 04:45:23 10° ESE visible
25 Oct 6.9 05:48:24 10° NNE 05:52:04 74° ESE 05:55:44 10° S visible
25 Oct 10.1 18:02:57 10° WSW 18:04:40 13° W 18:06:25 10° WNW visible
26 Oct 8.4 05:23:15 10° NNE 05:26:41 37° E 05:30:08 10° SSE visible
26 Oct 9.2 17:36:15 10° SSW 17:39:08 25° W 17:42:05 10° NW visible
27 Oct 9.6 04:58:27 10° NE 05:01:14 20° E 05:04:00 10° SE visible
27 Oct 7.7 17:10:20 10° S 17:13:41 49° W 17:17:08 10° NNW visible
28 Oct 10.5 04:34:41 10° ENE 04:35:40 11° E 04:36:39 10° ESE visible
29 Oct 7.3 05:40:31 10° NNE 05:44:11 60° E 05:47:50 10° S visible
29 Oct 9.9 17:54:26 10° SW 17:56:40 16° W 17:58:57 10° NW visible
30 Oct 8.8 05:15:27 10° NNE 05:18:46 31° E 05:22:05 10° SSE visible
30 Oct 8.8 17:28:03 10° SSW 17:31:09 30° W 17:34:20 10° NNW visible
